Wind_Speed
13 12 11 10 10 9 8 7 7 6 5 4 3 3 4 3 2 2 2 2 2 2 2 2 2 2 2 2 1 1 1 1 1 2 2 2 2 2 2 2 3 3 2 3
15 13 13 12 12 11 10 9 8 8 8 6 5 5 5 5 5 4 4 4 4 4 4 4 4 3 2 2 2 2 1 1 1 2 2 2 2 3 3 4 3 4 4 4
16 16 16 15 14 13 12 12 11 10 10 9 8 7 7 7 7 7 6 6 5 6 6 6 5 4 4 3 3 3 3 2 2 3 3 3 3 3 4 4 4 4 4 5
18 18 17 17 17 15 14 14 13 12 11 11 10 8 9 9 9 9 9 8 7 7 7 6 6 6 5 4 4 4 4 4 4 4 4 4 4 5 5 5 5 5 5 5
20 19 18 18 17 16 16 15 14 13 13 13 12 11 10 11 11 9 10 10 10 9 9 8 8 8 7 7 6 5 5 5 5 6 6 6 6 6 6 6 6 6 6 6
21 21 20 19 18 17 16 16 15 15 14 14 14 13 13 12 11 11 10 10 11 11 10 10 10 9 9 9 9 8 8 8 7 7 7 7 7 7 7 7 7 7 7 7
22 22 22 21 19 18 17 15 14 13 14 15 15 15 14 14 12 11 11 11 11 12 12 12 12 11 11 11 11 11 10 9 9 9 9 9 9 9 8 8 8 8 9 9
22 22 22 22 21 20 19 17 16 15 15 15 16 15 15 14 13 12 12 12 13 13 13 13 13 14 14 14 14 13 12 11 11 11 10 10 10 10 10 10 10 10 10 10
22 22 23 23 23 23 22 21 19 17 17 16 16 16 15 15 14 13 13 13 14 14 14 14 15 15 15 15 15 15 14 13 13 13 13 12 12 12 12 12 12 11 12 12
25 24 24 24 24 25 24 23 21 19 18 17 16 15 15 16 15 14 14 14 14 15 14 15 15 15 16 16 15 15 15 15 14 15 15 14 14 14 14 14 14 14 14 14
25 25 24 25 26 24 24 24 23 22 21 19 17 17 18 17 16 15 15 15 15 15 15 15 16 16 16 17 16 16 17 16 16 16 16 16 16 16 16 16 16 16 16 16
26 26 25 25 25 25 25 24 24 23 23 22 20 18 20 18 17 17 17 16 16 16 16 16 18 18 18 18 18 17 17 18 17 17 18 18 18 18 17 17 17 17 17 18
27 27 25 24 25 26 27 26 25 24 24 24 22 20 21 20 19 18 18 17 17 17 17 18 18 19 19 18 18 18 18 18 18 18 18 19 19 19 19 18 19 19 19 19
28 28 27 25 25 26 26 27 27 26 25 25 23 21 22 21 19 19 19 19 18 18 18 18 18 18 18 18 18 18 18 18 18 19 19 19 19 19 19 20 20 20 20 20
30 30 30 30 29 27 27 27 27 28 27 26 24 24 23 22 21 20 20 20 19 19 20 19 18 18 19 19 19 19 19 19 19 19 20 20 19 19 20 21 22 22 22 22
32 32 31 31 30 29 29 28 28 28 28 28 27 26 25 24 23 22 22 22 21 21 22 20 20 21 21 21 21 21 21 20 20 20 20 20 19 20 21 22 22 22 22 23
33 33 32 31 30 30 31 30 29 29 28 28 27 26 26 25 25 25 24 24 23 23 23 22 22 22 22 22 22 22 22 21 21 21 21 20 20 21 22 23 23 22 23 23
34 34 33 32 31 32 30 29 30 29 28 28 28 27 27 26 26 27 27 25 24 23 24 23 23 22 23 22 22 22 22 23 23 23 22 21 21 21 22 23 23 22 23 23
35 35 34 32 32 32 31 30 28 29 29 29 28 28 27 26 27 29 27 26 25 25 25 25 25 24 23 23 23 23 23 23 24 24 23 23 22 22 22 23 23 24 24 24
35 35 35 34 34 32 31 30 29 30 31 30 28 28 27 27 27 26 25 26 26 26 26 26 26 26 25 25 24 24 24 24 24 24 24 23 23 23 23 23 24 25 25 25
35 35 35 35 35 34 33 31 29 30 31 30 29 28 27 27 27 27 27 26 27 26 26 26 27 26 25 25 25 24 24 24 24 23 23 22 23 24 23 23 24 24 25 25
34 35 35 35 35 36 34 33 32 32 32 31 29 29 29 29 28 28 27 27 28 27 27 27 27 27 27 26 26 26 25 24 24 24 24 23 23 23 23 24 24 24 24 25
34 35 35 36 37 36 35 35 34 33 33 32 31 31 31 30 30 29 28 28 28 28 28 28 28 28 28 28 27 26 26 26 25 26 25 25 24 24 24 25 25 24 25 26
34 35 36 37 37 36 36 35 34 34 34 33 32 32 32 32 31 30 29 29 29 29 29 29 29 29 29 28 28 27 27 27 27 26 25 26 26 25 25 25 25 25 26 26
34 35 36 37 37 36 36 36 35 35 35 34 32 31 31 32 32 31 30 30 30 30 30 30 30 30 30 29 29 29 29 29 28 28 27 26 26 26 26 26 25 25 26 27
33 34 35 36 36 36 35 34 34 35 34 34 34 33 33 32 32 32 31 31 31 31 31 31 31 31 30 30 30 30 30 30 29 29 28 27 26 27 26 26 26 25 26 26
Wind_Direction
221 221 223 229 228 228 233 234 239 247 259 271 292 301 303 318 337 338 321 317 320 313 316 307 317 338 353 5 10 24 31 39 35 28 31 37 30 12 354 333 324 317 314 306
224 226 227 232 234 235 239 239 245 253 259 262 272 278 284 292 299 300 300 301 299 291 290 286 282 291 314 316 305 286 306 309 315 326 334 348 353 348 342 333 322 315 312 303
223 228 230 234 237 240 244 242 246 253 259 261 268 274 277 279 281 285 289 288 287 283 275 277 274 274 285 298 294 277 276 282 283 294 304 314 318 323 326 329 327 320 312 304
226 229 230 233 236 239 245 246 248 251 255 262 265 269 272 272 272 275 279 280 280 278 272 270 268 266 272 276 286 286 281 289 292 296 302 306 308 313 318 321 322 323 318 307
228 227 230 233 235 239 241 246 250 253 254 257 261 263 267 269 268 269 272 274 273 267 263 262 266 268 270 272 276 276 276 283 295 299 300 303 303 306 310 309 308 310 309 306
229 228 230 233 236 239 243 246 252 255 255 257 257 259 265 266 269 269 268 267 264 261 260 261 265 269 271 272 272 271 273 273 278 286 291 296 299 302 306 305 304 307 308 306
234 232 231 234 236 239 240 242 250 255 257 260 258 257 260 260 262 264 262 262 258 256 259 264 266 266 268 271 270 271 272 271 274 280 284 286 289 290 295 298 299 302 304 302
235 236 235 235 236 238 240 238 241 248 256 261 261 258 258 259 259 259 260 262 260 257 257 260 260 262 265 268 271 274 273 274 275 277 281 282 282 281 283 288 290 295 298 299
233 237 240 239 237 238 239 239 242 248 255 258 259 260 260 257 256 255 257 261 263 261 257 253 254 258 261 265 269 272 273 273 276 278 279 280 280 279 280 283 285 288 294 295
234 238 242 243 240 238 239 242 244 244 250 255 259 259 255 255 255 254 256 261 264 265 261 254 253 255 258 261 268 270 273 274 274 274 276 276 277 278 280 281 282 286 292 293
235 239 243 244 241 241 241 242 243 245 247 252 258 257 257 253 254 256 258 262 263 263 264 258 255 257 260 263 265 268 271 273 273 277 279 276 277 277 278 280 281 285 287 290
236 237 240 245 244 241 241 242 244 246 249 251 253 257 260 255 253 255 256 259 259 260 261 259 256 259 262 263 264 268 272 272 273 276 278 280 278 278 276 279 282 285 286 289
235 237 238 243 246 244 243 243 243 244 249 252 254 257 260 258 256 255 255 257 259 260 260 260 258 259 261 263 264 268 271 269 270 274 278 281 279 280 278 280 283 283 283 285
237 237 236 238 243 248 249 246 244 243 244 250 253 254 257 258 256 255 255 255 256 259 260 259 258 259 263 266 270 272 271 272 274 276 279 283 281 279 278 280 282 282 284 285
238 240 241 241 243 247 249 248 246 243 244 248 252 254 255 257 256 254 253 254 254 257 258 259 263 266 268 270 271 271 271 272 274 276 279 281 281 278 279 280 281 284 287 288
240 241 243 246 247 248 248 247 247 247 247 249 251 253 255 257 255 253 253 253 253 257 260 262 263 265 267 269 270 268 269 272 274 276 278 279 281 281 280 281 282 284 288 290
243 245 246 247 249 250 249 248 248 249 249 249 252 254 255 255 253 253 252 251 252 255 259 260 260 262 265 269 269 267 267 271 273 275 278 279 280 281 283 283 282 284 289 291
244 246 248 248 248 248 249 249 249 250 249 250 253 254 255 255 254 253 252 249 249 254 256 256 258 261 265 268 268 267 267 270 271 274 278 278 280 281 284 284 283 285 288 290
244 245 247 247 250 253 252 251 249 249 249 251 253 254 256 256 257 252 250 248 249 254 254 253 256 259 262 265 267 269 269 270 272 274 275 277 281 281 284 284 283 285 288 288
244 245 246 247 247 249 253 253 251 252 251 250 252 254 255 254 253 252 249 249 252 254 254 253 256 258 261 265 268 270 270 270 271 273 275 277 280 282 283 283 285 287 287 287
244 245 245 246 248 249 250 251 250 250 251 251 251 252 254 253 251 250 249 250 253 255 254 253 255 258 260 264 266 267 269 270 269 273 277 279 282 284 283 284 286 287 289 289
245 245 245 245 247 248 250 250 249 249 251 252 251 251 252 252 251 251 251 250 252 255 256 255 256 258 261 263 266 267 267 268 269 273 277 278 281 282 282 284 286 288 290 291
245 245 245 245 247 249 251 251 250 250 251 251 251 250 250 251 251 252 253 253 253 253 254 256 257 258 260 261 263 265 267 267 269 272 275 277 279 281 281 283 286 288 290 292
246 245 246 247 248 248 249 250 249 249 250 250 250 250 250 251 250 250 252 254 253 252 253 255 257 258 259 260 261 263 265 267 269 272 274 275 278 280 280 281 285 288 290 292
247 247 247 248 249 249 250 250 249 246 245 246 247 247 249 250 249 250 251 251 251 252 253 255 257 258 258 259 261 263 265 266 269 270 272 273 275 277 278 280 282 286 290 292
248 249 249 249 248 249 249 249 248 246 244 244 246 247 248 248 249 251 251 251 251 252 254 255 255 257 258 259 262 263 264 265 267 268 271 273 275 276 277 279 282 285 289 292
Height
5914 5917 5919 5920 5921 5923 5924 5924 5925 5925 5924 5924 5924 5923 5923 5922 5921 5921 5921 5920 5920 5919 5919 5918 5918 5917 5917 5916 5915 5915 5914 5913 5913 5912 5911 5911 5910 5909 5909 5908 5907 5907 5906 5905
5913 5915 5916 5917 5918 5920 5921 5922 5923 5923 5923 5923 5923 5923 5922 5922 5921 5920 5920 5920 5919 5919 5919 5918 5917 5917 5916 5916 5915 5915 5914 5913 5913 5912 5911 5910 5910 5909 5908 5907 5906 5906 5905 5904
5909 5912 5913 5914 5916 5917 5918 5920 5921 5921 5921 5921 5922 5922 5922 5921 5920 5920 5920 5919 5918 5918 5918 5917 5917 5916 5916 5915 5915 5914 5914 5913 5912 5911 5911 5910 5909 5908 5907 5906 5905 5905 5904 5903
5905 5907 5909 5911 5912 5914 5916 5917 5917 5918 5919 5920 5920 5921 5921 5919 5919 5919 5918 5918 5917 5917 5916 5916 5916 5915 5915 5915 5914 5913 5913 5912 5912 5911 5910 5909 5908 5907 5906 5905 5904 5903 5902 5902
5901 5903 5905 5907 5909 5910 5912 5913 5914 5915 5916 5917 5917 5918 5920 5918 5917 5917 5916 5916 5915 5915 5915 5914 5914 5914 5914 5914 5913 5912 5912 5911 5911 5910 5909 5908 5907 5906 5905 5904 5903 5902 5901 5900
5897 5899 5901 5903 5905 5906 5908 5910 5911 5912 5913 5915 5915 5915 5916 5915 5915 5914 5914 5913 5913 5913 5913 5913 5912 5912 5912 5912 5911 5911 5910 5910 5909 5908 5907 5906 5905 5904 5904 5902 5901 5900 5899 5898
5892 5894 5896 5899 5901 5902 5904 5907 5910 5911 5911 5912 5911 5911 5912 5911 5911 5910 5910 5910 5910 5910 5910 5910 5910 5910 5910 5909 5909 5909 5908 5908 5907 5906 5905 5904 5904 5903 5902 5901 5900 5898 5897 5896
5889 5891 5892 5894 5897 5899 5900 5903 5906 5908 5909 5909 5907 5907 5908 5907 5907 5906 5907 5907 5907 5907 5907 5907 5907 5907 5907 5907 5906 5906 5906 5905 5904 5904 5903 5902 5901 5900 5899 5898 5897 5896 5895 5893
5884 5886 5887 5889 5891 5894 5895 5898 5900 5903 5903 5904 5904 5904 5903 5903 5903 5903 5903 5903 5903 5903 5903 5904 5904 5904 5904 5904 5904 5903 5903 5902 5902 5901 5900 5899 5898 5897 5896 5896 5894 5893 5892 5890
5878 5881 5882 5883 5886 5888 5890 5893 5895 5897 5898 5899 5900 5900 5900 5899 5899 5899 5899 5899 5899 5899 5899 5899 5900 5900 5900 5900 5900 5900 5900 5899 5899 5898 5897 5896 5895 5894 5893 5892 5891 5890 5888 5887
5872 5875 5877 5878 5880 5883 5885 5887 5888 5891 5892 5894 5896 5899 5895 5894 5895 5895 5895 5895 5895 5895 5895 5895 5895 5896 5896 5896 5896 5896 5896 5895 5895 5894 5893 5892 5891 5890 5889 5888 5887 5885 5884 5883
5865 5869 5871 5873 5874 5876 5878 5880 5883 5886 5886 5887 5889 5894 5889 5889 5890 5890 5890 5890 5891 5891 5891 5891 5891 5891 5891 5892 5892 5892 5891 5891 5890 5890 5889 5888 5887 5886 5885 5883 5882 5881 5880 5878
5859 5862 5865 5867 5869 5870 5871 5873 5876 5879 5880 5881 5884 5888 5883 5884 5884 5885 5885 5886 5886 5886 5886 5886 5886 5886 5887 5887 5887 5887 5886 5886 5885 5885 5884 5883 5882 5881 5880 5879 5877 5876 5875 5873
5852 5855 5859 5862 5863 5863 5864 5867 5869 5871 5874 5875 5877 5879 5878 5878 5879 5879 5880 5880 5881 5881 5881 5881 5881 5882 5882 5882 5882 5882 5881 5881 5880 5880 5879 5878 5877 5876 5875 5874 5872 5871 5869 5868
5845 5847 5850 5852 5854 5856 5858 5860 5862 5864 5866 5869 5871 5871 5871 5872 5873 5873 5874 5875 5876 5876 5876 5876 5877 5877 5877 5877 5877 5877 5876 5876 5875 5875 5874 5873 5872 5871 5870 5868 5867 5866 5864 5862
5837 5840 5842 5844 5846 5848 5850 5852 5854 5856 5858 5860 5862 5864 5864 5865 5866 5867 5868 5869 5870 5870 5871 5871 5871 5871 5872 5872 5872 5872 5871 5871 5870 5869 5868 5867 5866 5865 5864 5863 5861 5860 5858 5856
5829 5832 5835 5837 5839 5840 5842 5845 5847 5849 5850 5853 5854 5857 5857 5858 5859 5860 5861 5862 5863 5864 5864 5865 5865 5865 5866 5866 5866 5866 5866 5865 5865 5864 5863 5862 5861 5860 5858 5857 5855 5854 5852 5850
5821 5824 5826 5829 5831 5831 5837 5838 5839 5841 5843 5845 5846 5848 5849 5850 5851 5852 5854 5855 5856 5857 5858 5858 5859 5859 5860 5860 5860 5860 5859 5859 5859 5858 5857 5856 5855 5853 5852 5851 5849 5847 5846 5844
5812 5815 5817 5820 5821 5823 5827 5828 5831 5833 5835 5837 5838 5840 5841 5842 5843 5843 5845 5847 5849 5850 5851 5852 5852 5853 5853 5853 5853 5853 5853 5853 5852 5852 5851 5850 5848 5847 5846 5845 5843 5841 5840 5837
5802 5805 5809 5810 5812 5815 5820 5820 5822 5825 5826 5828 5830 5831 5833 5834 5836 5837 5838 5840 5841 5842 5843 5844 5845 5846 5846 5847 5847 5847 5847 5846 5846 5845 5844 5843 5842 5841 5840 5838 5837 5835 5833 5831
5793 5795 5798 5800 5803 5806 5809 5811 5814 5817 5818 5820 5821 5823 5825 5826 5828 5829 5831 5832 5833 5834 5835 5837 5838 5839 5839 5840 5840 5840 5840 5839 5839 5838 5838 5837 5836 5835 5833 5832 5830 5829 5826 5825
5783 5786 5788 5791 5794 5798 5799 5801 5805 5807 5808 5811 5813 5815 5817 5818 5819 5821 5823 5824 5825 5827 5828 5829 5830 5831 5832 5832 5832 5833 5832 5832 5832 5832 5831 5830 5829 5828 5827 5826 5824 5822 5820 5818
5772 5776 5778 5781 5785 5787 5789 5791 5794 5796 5799 5801 5803 5806 5808 5810 5811 5813 5815 5816 5817 5819 5820 5821 5822 5824 5824 5825 5825 5825 5825 5825 5825 5825 5824 5824 5823 5822 5820 5819 5817 5815 5813 5811
5762 5764 5767 5769 5772 5775 5778 5780 5783 5786 5788 5791 5793 5796 5798 5800 5803 5805 5806 5808 5809 5811 5812 5814 5815 5816 5817 5817 5818 5818 5818 5818 5818 5817 5817 5816 5816 5814 5813 5812 5810 5808 5806 5804
5752 5754 5756 5758 5761 5764 5767 5770 5772 5775 5778 5780 5783 5785 5788 5790 5793 5795 5797 5799 5800 5802 5804 5805 5806 5808 5808 5809 5810 5810 5810 5810 5810 5810 5810 5809 5808 5807 5806 5805 5803 5801 5799 5797
5741 5743 5745 5748 5750 5753 5756 5759 5761 5764 5767 5770 5773 5775 5778 5781 5783 5786 5788 5790 5791 5793 5795 5796 5798 5799 5800 5801 5801 5802 5802 5802 5802 5802 5802 5801 5800 5799 5798 5797 5795 5793 5792 5789